Time,TemperatureF,DewpointF,PressureIn,WindDirection,WindDirectionDegrees,WindSpeedMPH,WindSpeedGustMPH,Humidity,HourlyPrecipIn,Conditions,Clouds,dailyrainin,SolarRadiationWatts/m^2,SoftwareType,DateUTC
2013-06-01 00:04:00,64.9,61.3,30.02,South,171,7.0,16.0,88,0.00,,,0.00,0,Wunderground v.1.15,2013-06-01 04:04:00,
2013-06-01 00:09:00,64.7,61.1,30.02,SW,221,7.0,16.0,88,0.00,,,0.00,0,Wunderground v.1.15,2013-06-01 04:09:00,
2013-06-01 00:19:00,64.6,61.3,30.02,SW,229,7.0,7.0,89,0.00,,,0.00,0,Wunderground v.1.15,2013-06-01 04:19:00,
2013-06-01 00:29:00,64.5,61.2,30.02,SSW,209,7.0,7.0,89,0.00,,,0.00,0,Wunderground v.1.15,2013-06-01 04:29:00,
2013-06-01 00:34:00,64.5,61.5,30.02,SSW,203,6.0,15.0,90,0.00,,,0.00,0,Wunderground v.1.15,2013-06-01 04:34:00,
2013-06-01 00:44:00,64.7,61.7,30.02,SSW,207,6.0,15.0,90,0.00,,,0.00,0,Wunderground v.1.15,2013-06-01 04:44:00,
2013-06-01 00:49:00,64.6,61.6,30.02,South,182,5.0,5.0,90,0.00,,,0.00,0,Wunderground v.1.15,2013-06-01 04:49:00,
2013-06-01 00:59:00,64.2,61.2,30.02,SSE,159,4.0,14.0,90,0.00,,,0.00,0,Wunderground v.1.15,2013-06-01 04:59:00,
2013-06-01 01:04:00,64.1,61.1,30.02,SSE,167,4.0,14.0,90,0.00,,,0.00,0,Wunderground v.1.15,2013-06-01 05:04:00,
2013-06-01 01:14:00,63.8,60.8,30.02,SSW,199,4.0,14.0,90,0.00,,,0.00,0,Wunderground v.1.15,2013-06-01 05:14:00,
2013-06-01 01:24:00,63.4,60.7,30.02,SW,225,5.0,14.0,91,0.00,,,0.00,0,Wunderground v.1.15,2013-06-01 05:24:00,
2013-06-01 01:29:00,63.3,60.6,30.01,South,188,5.0,11.0,91,0.00,,,0.00,0,Wunderground v.1.15,2013-06-01 05:29:00,
2013-06-01 01:39:00,63.1,60.4,30.01,SSW,205,5.0,5.0,91,0.00,,,0.00,0,Wunderground v.1.15,2013-06-01 05:39:00,
2013-06-01 01:44:00,63.0,60.3,30.01,SSW,197,5.0,11.0,91,0.00,,,0.00,0,Wunderground v.1.15,2013-06-01 05:44:00,
2013-06-01 01:54:00,62.6,59.9,30.01,SSW,196,5.0,13.0,91,0.00,,,0.00,0,Wunderground v.1.15,2013-06-01 05:54:00,
2013-06-01 02:04:00,62.3,59.9,30.01,SSW,194,4.0,13.0,92,0.00,,,0.00,0,Wunderground v.1.15,2013-06-01 06:04:00,
2013-06-01 02:14:00,62.0,59.6,30.01,South,191,4.0,13.0,92,0.00,,,0.00,0,Wunderground v.1.15,2013-06-01 06:14:00,
2013-06-01 02:24:00,61.7,59.4,30.01,South,170,3.0,13.0,92,0.00,,,0.00,0,Wunderground v.1.15,2013-06-01 06:24:00,
2013-06-01 02:34:00,61.2,59.2,30.01,SSW,211,4.0,13.0,93,0.00,,,0.00,0,Wunderground v.1.15,2013-06-01 06:34:00,
2013-06-01 02:44:00,61.1,59.1,30.00,SSW,211,3.0,4.0,93,0.00,,,0.00,0,Wunderground v.1.15,2013-06-01 06:44:00,
2013-06-01 02:49:00,61.2,59.2,30.00,South,185,4.0,4.0,93,0.00,,,0.00,0,Wunderground v.1.15,2013-06-01 06:49:00,
2013-06-01 02:59:00,61.5,59.5,30.00,SW,236,4.0,8.0,93,0.00,,,0.00,0,Wunderground v.1.15,2013-06-01 06:59:00,
2013-06-01 03:04:00,61.6,59.6,30.00,SW,222,4.0,8.0,93,0.00,,,0.00,0,Wunderground v.1.15,2013-06-01 07:04:00,
2013-06-01 03:14:00,61.7,59.7,30.00,WSW,239,4.0,9.0,93,0.00,,,0.00,0,Wunderground v.1.15,2013-06-01 07:14:00,
2013-06-01 03:24:00,61.8,59.8,30.00,SSW,196,4.0,10.0,93,0.00,,,0.00,0,Wunderground v.1.15,2013-06-01 07:24:00,
2013-06-01 03:29:00,61.8,59.8,30.00,SW,225,4.0,4.0,93,0.00,,,0.00,0,Wunderground v.1.15,2013-06-01 07:29:00,
2013-06-01 03:39:00,61.8,59.8,30.00,SW,231,5.0,10.0,93,0.00,,,0.00,0,Wunderground v.1.15,2013-06-01 07:39:00,
2013-06-01 03:44:00,61.9,60.2,30.00,SSW,207,4.0,10.0,94,0.00,,,0.00,0,Wunderground v.1.15,2013-06-01 07:44:00,
2013-06-01 03:54:00,62.0,60.3,30.00,SSW,210,4.0,5.0,94,0.00,,,0.00,0,Wunderground v.1.15,2013-06-01 07:54:00,
2013-06-01 04:04:00,61.8,60.1,30.00,SSW,200,3.0,11.0,94,0.00,,,0.00,0,Wunderground v.1.15,2013-06-01 08:04:00,
2013-06-01 04:09:00,61.7,59.7,30.00,SW,219,3.0,3.0,93,0.00,,,0.00,0,Wunderground v.1.15,2013-06-01 08:09:00,
2013-06-01 04:19:00,61.5,59.8,30.00,SSW,207,2.0,2.0,94,0.00,,,0.00,0,Wunderground v.1.15,2013-06-01 08:19:00,
2013-06-01 04:29:00,61.3,59.6,30.00,SW,215,3.0,8.0,94,0.00,,,0.00,0,Wunderground v.1.15,2013-06-01 08:29:00,
2013-06-01 04:39:00,61.1,59.4,30.00,SSW,212,4.0,8.0,94,0.00,,,0.00,0,Wunderground v.1.15,2013-06-01 08:39:00,
2013-06-01 04:49:00,60.8,59.1,30.00,SW,229,3.0,9.0,94,0.00,,,0.00,0,Wunderground v.1.15,2013-06-01 08:49:00,
2013-06-01 04:59:00,60.9,59.2,30.00,SW,223,4.0,4.0,94,0.00,,,0.00,0,Wunderground v.1.15,2013-06-01 08:59:00,
2013-06-01 05:09:00,60.9,59.2,30.00,SSE,166,4.0,4.0,94,0.00,,,0.00,0,Wunderground v.1.15,2013-06-01 09:09:00,
2013-06-01 05:19:00,60.9,59.5,30.01,SSW,203,3.0,3.0,95,0.00,,,0.00,5,Wunderground v.1.15,2013-06-01 09:19:00,
2013-06-01 05:29:00,60.9,59.5,30.01,South,178,3.0,3.0,95,0.00,,,0.00,9,Wunderground v.1.15,2013-06-01 09:29:00,
2013-06-01 05:39:00,60.5,58.8,30.01,SSW,207,3.0,9.0,94,0.00,,,0.00,18,Wunderground v.1.15,2013-06-01 09:39:00,
2013-06-01 05:49:00,60.4,59.0,30.01,SSW,213,3.0,9.0,95,0.00,,,0.00,28,Wunderground v.1.15,2013-06-01 09:49:00,
2013-06-01 05:59:00,60.4,59.0,30.01,SSW,201,3.0,8.0,95,0.00,,,0.00,47,Wunderground v.1.15,2013-06-01 09:59:00,
2013-06-01 06:09:00,60.5,59.1,30.01,SSW,205,3.0,8.0,95,0.00,,,0.00,70,Wunderground v.1.15,2013-06-01 10:09:00,
2013-06-01 06:19:00,60.4,59.0,30.01,SSE,163,3.0,8.0,95,0.00,,,0.00,93,Wunderground v.1.15,2013-06-01 10:19:00,
2013-06-01 06:29:00,60.3,58.9,30.01,SW,220,3.0,8.0,95,0.00,,,0.00,121,Wunderground v.1.15,2013-06-01 10:29:00,
2013-06-01 06:39:00,60.5,59.1,30.01,South,174,3.0,3.0,95,0.00,,,0.00,153,Wunderground v.1.15,2013-06-01 10:39:00,
2013-06-01 06:49:00,61.1,59.7,30.01,SW,232,3.0,8.0,95,0.00,,,0.00,186,Wunderground v.1.15,2013-06-01 10:49:00,
2013-06-01 06:59:00,61.4,59.7,30.01,SSW,196,4.0,9.0,94,0.00,,,0.00,223,Wunderground v.1.15,2013-06-01 10:59:00,
2013-06-01 07:09:00,61.8,59.8,30.01,SW,232,5.0,9.0,93,0.00,,,0.00,269,Wunderground v.1.15,2013-06-01 11:09:00,
2013-06-01 07:19:00,62.4,60.3,30.02,SW,233,3.0,9.0,93,0.00,,,0.00,288,Wunderground v.1.15,2013-06-01 11:19:00,
2013-06-01 07:24:00,62.5,60.4,30.02,SSW,211,4.0,10.0,93,0.00,,,0.00,302,Wunderground v.1.15,2013-06-01 11:24:00,
2013-06-01 07:34:00,62.9,60.5,30.02,SSW,203,4.0,9.0,92,0.00,,,0.00,336,Wunderground v.1.15,2013-06-01 11:34:00,
2013-06-01 07:44:00,63.1,60.7,30.02,SW,216,5.0,6.0,92,0.00,,,0.00,369,Wunderground v.1.15,2013-06-01 11:44:00,
2013-06-01 07:54:00,63.9,61.5,30.02,SSW,197,4.0,12.0,92,0.00,,,0.00,399,Wunderground v.1.15,2013-06-01 11:54:00,
2013-06-01 08:04:00,64.7,62.0,30.02,West,261,4.0,12.0,91,0.00,,,0.00,432,Wunderground v.1.15,2013-06-01 12:04:00,
2013-06-01 08:14:00,64.2,61.2,30.02,SW,223,6.0,12.0,90,0.00,,,0.00,466,Wunderground v.1.15,2013-06-01 12:14:00,
2013-06-01 08:24:00,64.4,61.4,30.02,SSW,213,6.0,13.0,90,0.00,,,0.00,496,Wunderground v.1.15,2013-06-01 12:24:00,
2013-06-01 08:29:00,64.9,61.9,30.02,SSW,206,6.0,6.0,90,0.00,,,0.00,512,Wunderground v.1.15,2013-06-01 12:29:00,
2013-06-01 08:39:00,65.5,62.5,30.02,SSW,212,6.0,13.0,90,0.00,,,0.00,543,Wunderground v.1.15,2013-06-01 12:39:00,
2013-06-01 08:49:00,66.4,63.1,30.02,SW,218,5.0,5.0,89,0.00,,,0.00,577,Wunderground v.1.15,2013-06-01 12:49:00,
2013-06-01 08:59:00,66.9,62.9,30.02,SSW,208,4.0,14.0,87,0.00,,,0.00,603,Wunderground v.1.15,2013-06-01 12:59:00,
2013-06-01 09:09:00,66.4,62.1,30.02,SSW,209,5.0,14.0,86,0.00,,,0.00,633,Wunderground v.1.15,2013-06-01 13:09:00,
2013-06-01 09:19:00,66.3,62.3,30.02,SSW,213,6.0,14.0,87,0.00,,,0.00,663,Wunderground v.1.15,2013-06-01 13:19:00,
2013-06-01 09:29:00,66.6,62.6,30.02,South,185,7.0,7.0,87,0.00,,,0.00,687,Wunderground v.1.15,2013-06-01 13:29:00,
2013-06-01 09:39:00,67.1,63.1,30.02,SW,221,7.0,14.0,87,0.00,,,0.00,710,Wunderground v.1.15,2013-06-01 13:39:00,
2013-06-01 09:49:00,68.3,63.6,30.02,South,176,5.0,14.0,85,0.00,,,0.00,735,Wunderground v.1.15,2013-06-01 13:49:00,
2013-06-01 09:59:00,67.7,63.4,30.02,SW,228,7.0,7.0,86,0.00,,,0.00,758,Wunderground v.1.15,2013-06-01 13:59:00,
2013-06-01 10:09:00,68.7,63.7,30.02,SSE,156,5.0,5.0,84,0.00,,,0.00,782,Wunderground v.1.15,2013-06-01 14:09:00,
2013-06-01 10:19:00,68.0,63.3,30.02,South,174,7.0,7.0,85,0.00,,,0.00,803,Wunderground v.1.15,2013-06-01 14:19:00,
2013-06-01 10:29:00,69.4,64.4,30.01,SW,224,5.0,15.0,84,0.00,,,0.00,826,Wunderground v.1.15,2013-06-01 14:29:00,
2013-06-01 10:34:00,68.6,63.2,30.01,WSW,242,5.0,15.0,83,0.00,,,0.00,837,Wunderground v.1.15,2013-06-01 14:34:00,
2013-06-01 10:44:00,68.3,63.3,30.01,SW,217,7.0,8.0,84,0.00,,,0.00,853,Wunderground v.1.15,2013-06-01 14:44:00,
2013-06-01 10:49:00,68.7,63.7,30.01,South,188,6.0,15.0,84,0.00,,,0.00,863,Wunderground v.1.15,2013-06-01 14:49:00,
2013-06-01 10:59:00,68.3,63.3,30.01,SSE,148,6.0,6.0,84,0.00,,,0.00,881,Wunderground v.1.15,2013-06-01 14:59:00,
2013-06-01 11:09:00,68.7,64.0,30.01,SSW,205,6.0,14.0,85,0.00,,,0.00,893,Wunderground v.1.15,2013-06-01 15:09:00,
2013-06-01 11:14:00,67.9,62.9,30.01,SE,146,6.0,14.0,84,0.00,,,0.00,898,Wunderground v.1.15,2013-06-01 15:14:00,
2013-06-01 11:24:00,68.2,63.2,30.01,South,188,7.0,16.0,84,0.00,,,0.00,912,Wunderground v.1.15,2013-06-01 15:24:00,
2013-06-01 11:34:00,68.9,63.5,30.01,SSE,163,6.0,16.0,83,0.00,,,0.00,923,Wunderground v.1.15,2013-06-01 15:34:00,
2013-06-01 11:44:00,68.6,63.2,30.02,SSW,209,6.0,16.0,83,0.00,,,0.00,933,Wunderground v.1.15,2013-06-01 15:44:00,
2013-06-01 11:54:00,69.1,63.4,30.01,SW,215,5.0,7.0,82,0.00,,,0.00,937,Wunderground v.1.15,2013-06-01 15:54:00,
2013-06-01 12:04:00,68.7,63.7,30.01,SSW,206,7.0,17.0,84,0.00,,,0.00,951,Wunderground v.1.15,2013-06-01 16:04:00,
2013-06-01 12:14:00,69.8,64.1,30.01,WSW,238,6.0,11.0,82,0.00,,,0.00,956,Wunderground v.1.15,2013-06-01 16:14:00,
2013-06-01 12:19:00,69.4,63.7,30.00,SSE,154,7.0,17.0,82,0.00,,,0.00,960,Wunderground v.1.15,2013-06-01 16:19:00,
2013-06-01 12:29:00,69.4,63.3,30.00,South,172,6.0,6.0,81,0.00,,,0.00,962,Wunderground v.1.15,2013-06-01 16:29:00,
2013-06-01 12:34:00,68.7,63.3,30.00,South,182,7.0,7.0,83,0.00,,,0.00,965,Wunderground v.1.15,2013-06-01 16:34:00,
2013-06-01 12:44:00,70.2,64.1,30.00,South,170,5.0,16.0,81,0.00,,,0.00,970,Wunderground v.1.15,2013-06-01 16:44:00,
2013-06-01 12:54:00,69.9,64.2,30.00,SSW,211,6.0,16.0,82,0.00,,,0.00,972,Wunderground v.1.15,2013-06-01 16:54:00,
2013-06-01 12:59:00,69.2,63.5,29.99,South,171,6.0,15.0,82,0.00,,,0.00,969,Wunderground v.1.15,2013-06-01 16:59:00,
2013-06-01 13:04:00,69.0,63.6,30.00,South,180,7.0,15.0,83,0.00,,,0.00,963,Wunderground v.1.15,2013-06-01 17:04:00,
2013-06-01 13:14:00,70.0,64.2,30.00,SSW,197,6.0,15.0,82,0.00,,,0.00,956,Wunderground v.1.15,2013-06-01 17:14:00,
2013-06-01 13:19:00,70.0,64.2,30.00,SW,233,6.0,6.0,82,0.00,,,0.00,956,Wunderground v.1.15,2013-06-01 17:19:00,
2013-06-01 13:29:00,69.3,64.3,29.99,SW,216,7.0,18.0,84,0.00,,,0.00,953,Wunderground v.1.15,2013-06-01 17:29:00,
2013-06-01 13:39:00,70.4,64.6,29.99,SSW,209,8.0,8.0,82,0.00,,,0.00,944,Wunderground v.1.15,2013-06-01 17:39:00,
2013-06-01 13:44:00,71.0,65.2,29.99,SSE,159,7.0,18.0,82,0.00,,,0.00,942,Wunderground v.1.15,2013-06-01 17:44:00,
2013-06-01 13:54:00,71.2,65.1,29.99,SW,221,5.0,18.0,81,0.00,,,0.00,930,Wunderground v.1.15,2013-06-01 17:54:00,
2013-06-01 14:04:00,71.4,64.5,29.99,South,178,5.0,18.0,79,0.00,,,0.00,918,Wunderground v.1.15,2013-06-01 18:04:00,
2013-06-01 14:09:00,70.8,64.7,29.98,SSE,147,6.0,6.0,81,0.00,,,0.00,909,Wunderground v.1.15,2013-06-01 18:09:00,
2013-06-01 14:19:00,70.3,64.5,29.98,SW,224,6.0,18.0,82,0.00,,,0.00,902,Wunderground v.1.15,2013-06-01 18:19:00,
2013-06-01 14:24:00,69.4,63.7,29.98,SW,222,6.0,18.0,82,0.00,,,0.00,891,Wunderground v.1.15,2013-06-01 18:24:00,
2013-06-01 14:34:00,70.1,64.0,29.98,South,180,5.0,14.0,81,0.00,,,0.00,879,Wunderground v.1.15,2013-06-01 18:34:00,
2013-06-01 14:44:00,69.4,63.3,29.98,SE,132,5.0,7.0,81,0.00,,,0.00,860,Wunderground v.1.15,2013-06-01 18:44:00,
2013-06-01 14:54:00,69.4,64.0,29.98,SSW,213,7.0,14.0,83,0.00,,,0.00,844,Wunderground v.1.15,2013-06-01 18:54:00,
2013-06-01 15:04:00,70.4,65.0,29.98,SSW,210,5.0,14.0,83,0.00,,,0.00,816,Wunderground v.1.15,2013-06-01 19:04:00,
2013-06-01 15:09:00,70.1,64.7,29.97,SW,219,6.0,14.0,83,0.00,,,0.00,809,Wunderground v.1.15,2013-06-01 19:09:00,
2013-06-01 15:19:00,70.7,64.9,29.97,SSE,161,5.0,14.0,82,0.00,,,0.00,782,Wunderground v.1.15,2013-06-01 19:19:00,
2013-06-01 15:29:00,69.7,64.6,29.97,SSE,161,7.0,7.0,84,0.00,,,0.00,768,Wunderground v.1.15,2013-06-01 19:29:00,
2013-06-01 15:39:00,69.7,64.0,29.96,SSW,199,7.0,17.0,82,0.00,,,0.00,740,Wunderground v.1.15,2013-06-01 19:39:00,
2013-06-01 15:49:00,69.4,64.4,29.96,SW,215,7.0,17.0,84,0.00,,,0.00,719,Wunderground v.1.15,2013-06-01 19:49:00,
2013-06-01 15:59:00,69.7,64.6,29.95,SSE,161,6.0,15.0,84,0.00,,,0.00,693,Wunderground v.1.15,2013-06-01 19:59:00,
2013-06-01 16:09:00,69.7,64.6,29.95,South,182,5.0,5.0,84,0.00,,,0.00,668,Wunderground v.1.15,2013-06-01 20:09:00,
2013-06-01 16:19:00,69.9,64.2,29.96,SSW,210,6.0,15.0,82,0.00,,,0.00,642,Wunderground v.1.15,2013-06-01 20:19:00,
2013-06-01 16:29:00,70.4,65.0,29.96,SSW,192,6.0,6.0,83,0.00,,,0.00,613,Wunderground v.1.15,2013-06-01 20:29:00,
2013-06-01 16:39:00,70.3,64.5,29.96,SW,235,5.0,14.0,82,0.00,,,0.00,578,Wunderground v.1.15,2013-06-01 20:39:00,
2013-06-01 16:44:00,69.9,64.5,29.96,SSW,200,6.0,14.0,83,0.00,,,0.00,566,Wunderground v.1.15,2013-06-01 20:44:00,
2013-06-01 16:54:00,69.9,64.5,29.96,SSW,204,5.0,16.0,83,0.00,,,0.00,534,Wunderground v.1.15,2013-06-01 20:54:00,
2013-06-01 17:04:00,71.1,65.3,29.96,SW,220,5.0,7.0,82,0.00,,,0.00,510,Wunderground v.1.15,2013-06-01 21:04:00,
2013-06-01 17:14:00,71.1,65.3,29.95,SSW,195,5.0,16.0,82,0.00,,,0.00,475,Wunderground v.1.15,2013-06-01 21:14:00,
2013-06-01 17:24:00,70.1,64.7,29.96,SW,218,5.0,12.0,83,0.00,,,0.00,445,Wunderground v.1.15,2013-06-01 21:24:00,
2013-06-01 17:29:00,69.9,64.5,29.95,SSW,209,4.0,12.0,83,0.00,,,0.00,431,Wunderground v.1.15,2013-06-01 21:29:00,
2013-06-01 17:39:00,69.4,64.4,29.96,SW,215,6.0,12.0,84,0.00,,,0.00,397,Wunderground v.1.15,2013-06-01 21:39:00,
2013-06-01 17:44:00,69.3,64.3,29.95,SW,219,6.0,12.0,84,0.00,,,0.00,385,Wunderground v.1.15,2013-06-01 21:44:00,
2013-06-01 17:54:00,69.4,64.7,29.95,SW,218,6.0,14.0,85,0.00,,,0.00,343,Wunderground v.1.15,2013-06-01 21:54:00,
2013-06-01 18:04:00,69.0,64.6,29.95,SSE,163,7.0,14.0,86,0.00,,,0.00,302,Wunderground v.1.15,2013-06-01 22:04:00,
2013-06-01 18:14:00,68.3,63.9,29.95,SW,216,7.0,14.0,86,0.00,,,0.00,285,Wunderground v.1.15,2013-06-01 22:14:00,
2013-06-01 18:24:00,68.4,64.4,29.95,SW,229,6.0,8.0,87,0.00,,,0.00,248,Wunderground v.1.15,2013-06-01 22:24:00,
2013-06-01 18:29:00,68.9,64.9,29.94,SSW,192,6.0,19.0,87,0.00,,,0.00,234,Wunderground v.1.15,2013-06-01 22:29:00,
2013-06-01 18:39:00,68.5,64.5,29.94,South,190,5.0,5.0,87,0.00,,,0.00,209,Wunderground v.1.15,2013-06-01 22:39:00,
2013-06-01 18:44:00,68.1,64.1,29.94,SSW,211,5.0,19.0,87,0.00,,,0.00,190,Wunderground v.1.15,2013-06-01 22:44:00,
2013-06-01 18:49:00,68.2,64.2,29.93,SSW,205,4.0,19.0,87,0.00,,,0.00,176,Wunderground v.1.15,2013-06-01 22:49:00,
2013-06-01 18:59:00,67.7,63.7,29.94,SW,231,6.0,13.0,87,0.00,,,0.00,134,Wunderground v.1.15,2013-06-01 22:59:00,
2013-06-01 19:09:00,66.8,63.1,29.94,SW,228,6.0,6.0,88,0.00,,,0.00,109,Wunderground v.1.15,2013-06-01 23:09:00,
2013-06-01 19:19:00,66.4,63.1,29.94,SSW,207,5.0,13.0,89,0.00,,,0.00,79,Wunderground v.1.15,2013-06-01 23:19:00,
2013-06-01 19:29:00,65.8,62.8,29.94,SSW,202,5.0,15.0,90,0.00,,,0.00,56,Wunderground v.1.15,2013-06-01 23:29:00,
2013-06-01 19:39:00,65.3,62.3,29.94,SW,223,6.0,15.0,90,0.00,,,0.00,33,Wunderground v.1.15,2013-06-01 23:39:00,
2013-06-01 19:49:00,65.2,62.5,29.94,SSW,197,6.0,15.0,91,0.00,,,0.00,25,Wunderground v.1.15,2013-06-01 23:49:00,
2013-06-01 19:59:00,65.0,62.6,29.94,SSW,203,6.0,6.0,92,0.00,,,0.00,12,Wunderground v.1.15,2013-06-01 23:59:00,
2013-06-01 20:04:00,64.7,62.3,29.94,SW,233,6.0,16.0,92,0.00,,,0.00,9,Wunderground v.1.15,2013-06-02 00:04:00,
2013-06-01 20:14:00,64.6,62.2,29.95,SSW,209,5.0,16.0,92,0.00,,,0.00,0,Wunderground v.1.15,2013-06-02 00:14:00,
2013-06-01 20:24:00,64.5,62.4,29.95,SSW,192,6.0,14.0,93,0.00,,,0.00,0,Wunderground v.1.15,2013-06-02 00:24:00,
2013-06-01 20:34:00,64.3,62.2,29.95,South,183,6.0,14.0,93,0.00,,,0.00,0,Wunderground v.1.15,2013-06-02 00:34:00,
2013-06-01 20:44:00,64.0,61.9,29.95,SSW,207,5.0,14.0,93,0.00,,,0.00,0,Wunderground v.1.15,2013-06-02 00:44:00,
2013-06-01 20:54:00,63.8,61.7,29.95,SSW,209,5.0,14.0,93,0.00,,,0.00,0,Wunderground v.1.15,2013-06-02 00:54:00,
2013-06-01 20:59:00,63.7,61.6,29.95,SW,216,5.0,5.0,93,0.00,,,0.00,0,Wunderground v.1.15,2013-06-02 00:59:00,
2013-06-01 21:09:00,63.7,61.6,29.95,SW,223,4.0,12.0,93,0.00,,,0.00,0,Wunderground v.1.15,2013-06-02 01:09:00,
2013-06-01 21:19:00,63.9,61.8,29.95,South,178,5.0,12.0,93,0.00,,,0.00,0,Wunderground v.1.15,2013-06-02 01:19:00,
2013-06-01 21:29:00,64.1,62.3,29.95,SW,234,4.0,4.0,94,0.00,,,0.00,0,Wunderground v.1.15,2013-06-02 01:29:00,
2013-06-01 21:34:00,64.4,62.3,29.95,SSW,200,4.0,12.0,93,0.00,,,0.00,0,Wunderground v.1.15,2013-06-02 01:34:00,
2013-06-01 21:49:00,65.0,62.9,29.95,SSW,199,6.0,6.0,93,0.00,,,0.00,0,Wunderground v.1.15,2013-06-02 01:49:00,
2013-06-01 21:54:00,65.1,63.0,29.95,SW,219,6.0,14.0,93,0.00,,,0.00,0,Wunderground v.1.15,2013-06-02 01:54:00,
2013-06-01 22:04:00,65.0,62.6,29.95,SW,215,5.0,14.0,92,0.00,,,0.00,0,Wunderground v.1.15,2013-06-02 02:04:00,
2013-06-01 22:14:00,64.8,62.1,29.95,SSW,194,5.0,14.0,91,0.00,,,0.00,0,Wunderground v.1.15,2013-06-02 02:14:00,
2013-06-01 22:24:00,64.4,61.7,29.95,SSE,159,6.0,6.0,91,0.00,,,0.00,0,Wunderground v.1.15,2013-06-02 02:24:00,
2013-06-01 22:34:00,64.1,61.4,29.94,South,187,6.0,13.0,91,0.00,,,0.00,0,Wunderground v.1.15,2013-06-02 02:34:00,
2013-06-01 22:44:00,64.1,61.7,29.95,SSE,157,5.0,13.0,92,0.00,,,0.00,0,Wunderground v.1.15,2013-06-02 02:44:00,
2013-06-01 22:54:00,63.9,61.5,29.95,South,190,6.0,14.0,92,0.00,,,0.00,0,Wunderground v.1.15,2013-06-02 02:54:00,
2013-06-01 22:59:00,63.8,61.4,29.94,SSW,197,6.0,6.0,92,0.00,,,0.00,0,Wunderground v.1.15,2013-06-02 02:59:00,
2013-06-01 23:09:00,63.9,61.5,29.94,SSE,153,5.0,14.0,92,0.00,,,0.00,0,Wunderground v.1.15,2013-06-02 03:09:00,
2013-06-01 23:19:00,64.3,61.9,29.95,SSW,210,7.0,14.0,92,0.00,,,0.00,0,Wunderground v.1.15,2013-06-02 03:19:00,
2013-06-01 23:29:00,64.4,62.0,29.95,SSW,192,8.0,8.0,92,0.00,,,0.00,0,Wunderground v.1.15,2013-06-02 03:29:00,
2013-06-01 23:39:00,64.5,62.1,29.95,West,266,6.0,6.0,92,0.00,,,0.00,0,Wunderground v.1.15,2013-06-02 03:39:00,
2013-06-01 23:49:00,64.5,62.1,29.95,SW,223,7.0,18.0,92,0.00,,,0.00,0,Wunderground v.1.15,2013-06-02 03:49:00,
2013-06-01 23:59:00,64.1,61.7,29.95,SSE,148,7.0,7.0,92,0.00,,,0.00,0,Wunderground v.1.15,2013-06-02 03:59:00,